Location: Cahas Mountain Overlook
(37.0833°N, 80.1000°W)
Time: 09:51:01
(UTC-04:00)

Vanguard 1 Rocket - Pass Details

Date: 24 January 2022
Orbit: 651 x 4224 km, 34.3° (Epoch: 21 May)

Event Time Altitude Azimuth Distance (km) Brightness Sun altitude
Rises 18:39:44 0° 284° (WNW) 6,343 12.9 -12.7°
Reaches altitude 10° 18:45:06 10° 277° (W) 4,694 12.2 -13.7°
Maximum altitude 18:55:04 34° 218° (SW) 2,089 9.7 -15.7°
Drops below altitude 10° 19:00:54 10° 155° (SSE) 2,715 9.7 -16.8°
Sets 19:03:10 0° 144° (SE) 3,417 10.1 -17.3°
